Corning, AR

12:04 AM CDT on June 26, 2017 (GMT -0500)
Corning

Weather History for K4M9 - May, 2014

Change the Weather History Date:

Thursday, May 15, 2014

  Actual Average (KARG) Record (KARG)
Temperature  
Mean Temperature 56 °F -  
Max Temperature 66 °F 77 °F 91 °F (2001)
Min Temperature 46 °F 58 °F 44 °F (2014)
Degree Days  
Heating Degree Days 9    
Growing Degree Days 6 (Base 50)    
Moisture  
Dew Point 47 °F    
Average Humidity 76    
Maximum Humidity 93    
Minimum Humidity 52    
Precipitation  
Precipitation 0.13 in - - ()
Sea Level Pressure  
Sea Level Pressure 30.10 in    
Wind  
Wind Speed 8 mph (WSW)    
Max Wind Speed 18 mph    
Max Gust Speed 32 mph    
Visibility 10 miles    
Events Rain , Thunderstorm    
Averages and records for this station are not official NWS values.
T = Trace of Precipitation, MM = Missing Value Source: NWS Daily Summary

Daily Weather History Graph

Daily Weather History Graph

Search for Another Location

Airport or City:

Trip Planner

Search our weather history database for the weather conditions in past years. The results will help you decide how hot, cold, wet, or windy it might be!

Date:

Astronomy

May. 15, 2014 Rise Set
Actual Time 5:55 AM CDT 8:02 PM CDT
Civil Twilight 5:27 AM CDT 8:31 PM CDT
Nautical Twilight 4:52 AM CDT 9:06 PM CDT
Astronomical Twilight 4:14 AM CDT 9:44 PM CDT
Moon 9:10 PM CDT (5/15) 6:42 AM CDT (5/15)
Length of Visible Light 15h 04m
Length of Day
14h 06m
Full, 99% of the Moon is Illuminated
May 15
Full
May 21
Last Quarter
May 28
New
Jun 5
First Quarter
Jun 12
Full

Hourly Weather History & Observations

Time (CDT) Temp. Windchill Dew Point Humidity Pressure Visibility Wind Dir Wind Speed Gust Speed Precip Events Conditions
12:15 AM 46.4 °F 41.1 °F 42.8 °F 87% 30.10 in 10.0 mi NW 11.5 mph - N/A   Overcast
12:35 AM 46.4 °F 42.4 °F 44.6 °F 93% 30.10 in 10.0 mi NW 8.1 mph - N/A   Overcast
12:55 AM 46.4 °F 41.5 °F 42.8 °F 87% 30.10 in 10.0 mi NW 10.4 mph - N/A   Overcast
1:35 AM 46.4 °F 41.1 °F 42.8 °F 87% 30.10 in 10.0 mi NW 11.5 mph - N/A   Overcast
1:55 AM 46.4 °F 41.5 °F 42.8 °F 87% 30.10 in 10.0 mi WNW 10.4 mph - N/A Rain Light Rain
2:15 AM 46.4 °F 42.4 °F 44.6 °F 93% 30.09 in 10.0 mi WNW 8.1 mph - N/A Rain Light Rain
2:35 AM 46.4 °F 42.4 °F 44.6 °F 93% 30.09 in 10.0 mi WNW 8.1 mph - N/A   Overcast
2:55 AM 46.4 °F 42.9 °F 42.8 °F 87% 30.09 in 10.0 mi NW 6.9 mph - N/A   Overcast
3:15 AM 46.4 °F 42.4 °F 44.6 °F 93% 30.09 in 10.0 mi WNW 8.1 mph - N/A   Overcast
3:35 AM 46.4 °F 42.4 °F 44.6 °F 93% 30.09 in 10.0 mi West 8.1 mph - N/A   Overcast
3:55 AM 46.4 °F 42.4 °F 44.6 °F 93% 30.10 in 10.0 mi West 8.1 mph - N/A   Overcast
6:15 AM 46.4 °F 43.5 °F 42.8 °F 87% 30.13 in 10.0 mi West 5.8 mph - N/A   Clear
6:55 AM 46.4 °F 44.3 °F 44.6 °F 93% 30.13 in 10.0 mi SW 4.6 mph - N/A   Clear
7:15 AM 48.2 °F - 44.6 °F 87% 30.13 in 10.0 mi SW 3.5 mph - N/A   Clear
7:35 AM 48.2 °F - 44.6 °F 87% 30.13 in 10.0 mi Calm Calm - N/A   Clear
7:55 AM 48.2 °F - 44.6 °F 87% 30.13 in 10.0 mi WNW 4.6 mph - N/A   Clear
8:15 AM 50.0 °F - 44.6 °F 82% 30.14 in 10.0 mi West 8.1 mph - N/A   Clear
8:35 AM 48.2 °F - 44.6 °F 87% 30.14 in 10.0 mi West 6.9 mph - N/A   Clear
8:55 AM 50.0 °F - 44.6 °F 82% 30.15 in 10.0 mi SW 5.8 mph - N/A   Clear
9:15 AM 51.8 °F - 44.6 °F 76% 30.14 in 10.0 mi West 8.1 mph - N/A   Clear
9:35 AM 53.6 °F - 44.6 °F 72% 30.15 in 10.0 mi West 3.5 mph - N/A   Unknown
9:55 AM 55.4 °F - 46.4 °F 72% 30.15 in 10.0 mi WSW 8.1 mph - N/A   Unknown
10:15 AM 55.4 °F - 46.4 °F 72% 30.16 in 10.0 mi SW 6.9 mph - N/A   Unknown
10:35 AM 57.2 °F - 46.4 °F 67% 30.16 in 10.0 mi SW 9.2 mph - N/A   Unknown
10:55 AM 57.2 °F - 46.4 °F 67% 30.16 in 10.0 mi SW 6.9 mph - N/A   Unknown
11:15 AM 59.0 °F - 44.6 °F 59% 30.15 in 10.0 mi SSW 6.9 mph - N/A   Unknown
11:35 AM 59.0 °F - 44.6 °F 59% 30.15 in 10.0 mi SSW 8.1 mph - N/A   Unknown
11:55 AM 60.8 °F - 46.4 °F 59% 30.15 in 10.0 mi SW 9.2 mph - N/A   Unknown
12:15 PM 60.8 °F - 46.4 °F 59% 30.14 in 10.0 mi South 6.9 mph - N/A   Unknown
12:35 PM 62.6 °F - 48.2 °F 59% 30.14 in 10.0 mi SSW 8.1 mph 18.4 mph N/A   Unknown
12:55 PM 62.6 °F - 46.4 °F 55% 30.13 in 10.0 mi South 9.2 mph - N/A   Unknown
1:15 PM 62.6 °F - 46.4 °F 55% 30.12 in 10.0 mi SSW 12.7 mph - N/A   Unknown
1:55 PM 64.4 °F - 48.2 °F 56% 30.11 in 10.0 mi South 13.8 mph 23.0 mph N/A   Unknown
2:35 PM 62.6 °F - 48.2 °F 59% 30.08 in 10.0 mi South 15.0 mph 20.7 mph N/A   Unknown
2:55 PM 66.2 °F - 50.0 °F 56% 30.07 in 10.0 mi SSW 16.1 mph - N/A   Unknown
3:15 PM 66.2 °F - 48.2 °F 52% 30.06 in 10.0 mi SSW 18.4 mph 25.3 mph N/A   Unknown
3:35 PM 66.2 °F - 50.0 °F 56% 30.04 in 10.0 mi SSW 16.1 mph 20.7 mph N/A Thunderstorm Unknown
3:55 PM 66.2 °F - 48.2 °F 52% 30.04 in 10.0 mi SSW 12.7 mph 20.7 mph N/A Thunderstorm Thunderstorm
4:15 PM 66.2 °F - 50.0 °F 56% 30.03 in 10.0 mi SSW 16.1 mph - N/A Thunderstorm Thunderstorm
4:35 PM 53.6 °F - 46.4 °F 77% 30.08 in 1.0 mi WNW 12.7 mph 32.2 mph 0.08 in Rain , Thunderstorm Thunderstorms and Rain
4:55 PM 53.6 °F - 48.2 °F 82% 30.06 in 10.0 mi SSW 8.1 mph - 0.13 in Thunderstorm Thunderstorm
5:15 PM 53.6 °F - 48.2 °F 82% 30.05 in 10.0 mi SE 5.8 mph - N/A Thunderstorm Clear
5:35 PM 53.6 °F - 50.0 °F 88% 30.05 in 10.0 mi ESE 6.9 mph - N/A   Unknown
5:55 PM 55.4 °F - 50.0 °F 82% 30.05 in 10.0 mi East 4.6 mph - N/A   Unknown
6:15 PM 57.2 °F - 48.2 °F 72% 30.05 in 10.0 mi SE 3.5 mph - N/A   Unknown
6:35 PM 57.2 °F - 48.2 °F 72% 30.06 in 10.0 mi SE 5.8 mph - N/A   Unknown
6:55 PM 57.2 °F - 48.2 °F 72% 30.06 in 10.0 mi South 6.9 mph - N/A   Unknown
7:15 PM 57.2 °F - 48.2 °F 72% 30.06 in 10.0 mi South 3.5 mph - N/A Thunderstorm Clear
7:35 PM 57.2 °F - 48.2 °F 72% 30.05 in 10.0 mi SE 3.5 mph - N/A   Clear
7:55 PM 57.2 °F - 50.0 °F 77% 30.05 in 10.0 mi ESE 4.6 mph - N/A   Partly Cloudy
8:15 PM 57.2 °F - 51.8 °F 82% 30.07 in 10.0 mi North 5.8 mph - N/A Thunderstorm Thunderstorm
8:35 PM 55.4 °F - 51.8 °F 88% 30.08 in 10.0 mi Calm Calm - N/A   Scattered Clouds
8:55 PM 55.4 °F - 50.0 °F 82% 30.09 in 10.0 mi North 6.9 mph - N/A   Scattered Clouds
9:15 PM 55.4 °F - 50.0 °F 82% 30.10 in 10.0 mi NW 6.9 mph - N/A Thunderstorm Mostly Cloudy
9:35 PM 53.6 °F - 50.0 °F 88% 30.11 in 10.0 mi NW 5.8 mph - N/A   Mostly Cloudy
9:55 PM 53.6 °F - 50.0 °F 88% 30.11 in 10.0 mi NW 6.9 mph - N/A   Partly Cloudy
10:15 PM 53.6 °F - 48.2 °F 82% 30.12 in 10.0 mi NW 6.9 mph - N/A   Partly Cloudy
10:35 PM 53.6 °F - 46.4 °F 77% 30.12 in 10.0 mi NW 10.4 mph - N/A   Partly Cloudy
10:55 PM 53.6 °F - 46.4 °F 77% 30.13 in 10.0 mi NW 8.1 mph - N/A   Clear
11:15 PM 51.8 °F - 44.6 °F 76% 30.13 in 10.0 mi NW 5.8 mph - N/A   Clear
11:35 PM 50.0 °F - 44.6 °F 82% 30.13 in 10.0 mi NW 5.8 mph - N/A   Clear
11:55 PM 50.0 °F - 42.8 °F 76% 30.13 in 10.0 mi NW 4.6 mph - N/A   Clear